EJU68CA LIMC-EDDH

Flight info

Callsign EJU68CA
Flight time N/A
Altitude 38000
Route PEPAG DCT ABESI N851 UTAVO DCT ROLSA DCT LOKTA DCT TEDGO DCT HAREM DCT LOHRE DCT MASEK DCT ELNAT P605 NOLGO NOLGO3P
Aircraft A319/M-SDE3FGHIRWY/LB1

Departure

Time N/A
Airport Milan Malpensa International Airport (LIMC)

Arrival

Time 2026-04-26 19:17
Airport Hamburg Helmut Schmidt Airport (EDDH)
Time Latitude Longitude Altitude Speed Heading
2026-04-26 18:44 50.72260 9.59735 38282 ft 429 kts
2026-04-26 18:44 50.78198 9.60800 38289 ft 430 kts
2026-04-26 18:45 50.84099 9.61963 38292 ft 430 kts
2026-04-26 18:45 50.90028 9.63153 38281 ft 429 kts
2026-04-26 18:46 50.95939 9.64314 38279 ft 428 kts
2026-04-26 18:46 51.00893 9.65264 38282 ft 428 kts
2026-04-26 18:47 51.06773 9.66403 38287 ft 429 kts
2026-04-26 18:47 51.12698 9.67576 38290 ft 428 kts
2026-04-26 18:48 51.18620 9.68750 38290 ft 428 kts
2026-04-26 18:48 51.24525 9.69851 38290 ft 427 kts
2026-04-26 18:49 51.30453 9.70772 38291 ft 427 kts
2026-04-26 18:49 51.36374 9.71680 38290 ft 427 kts
2026-04-26 18:50 51.42296 9.72634 38290 ft 427 kts
2026-04-26 18:50 51.48110 9.73600 38275 ft 412 kts
2026-04-26 18:51 51.53723 9.74633 38275 ft 407 kts
2026-04-26 18:51 51.59342 9.75726 38282 ft 407 kts
2026-04-26 18:52 51.64958 9.76812 38285 ft 406 kts
2026-04-26 18:52 51.70583 9.77878 38286 ft 407 kts
2026-04-26 18:53 51.76203 9.78973 38289 ft 407 kts
2026-04-26 18:53 51.81819 9.80135 38293 ft 407 kts
2026-04-26 18:54 51.87439 9.81308 38304 ft 407 kts
2026-04-26 18:54 51.93063 9.82478 38310 ft 407 kts
2026-04-26 18:55 51.98684 9.83645 38310 ft 407 kts
2026-04-26 18:55 52.01511 9.84232 37946 ft 411 kts
2026-04-26 18:55 52.04344 9.84815 37454 ft 408 kts
2026-04-26 18:56 52.07122 9.85385 36960 ft 408 kts
2026-04-26 18:56 52.09934 9.85969 36462 ft 409 kts
2026-04-26 18:56 52.12798 9.86565 35968 ft 421 kts
2026-04-26 18:56 52.15732 9.87169 35404 ft 426 kts
2026-04-26 18:57 52.18668 9.87778 34831 ft 425 kts
2026-04-26 18:57 52.20650 9.88195 34442 ft 425 kts
2026-04-26 18:57 52.24600 9.89018 33670 ft 438 kts
2026-04-26 18:57 52.27628 9.89654 33098 ft 438 kts
2026-04-26 18:58 52.30635 9.90297 32522 ft 435 kts
2026-04-26 18:58 52.33624 9.90942 31948 ft 431 kts
2026-04-26 18:58 52.36582 9.91581 31371 ft 428 kts
2026-04-26 18:58 52.39557 9.92215 30794 ft 432 kts
2026-04-26 18:59 52.42538 9.92845 30217 ft 430 kts
2026-04-26 18:59 52.45492 9.93469 29642 ft 427 kts
2026-04-26 18:59 52.48426 9.94087 29068 ft 428 kts
2026-04-26 18:59 52.51440 9.94712 28485 ft 441 kts
2026-04-26 19:00 52.54500 9.95352 27909 ft 443 kts
2026-04-26 19:00 52.57545 9.95998 27336 ft 440 kts
2026-04-26 19:00 52.60578 9.96645 26760 ft 438 kts
2026-04-26 19:00 52.63549 9.97286 26175 ft 435 kts
2026-04-26 19:01 52.66573 9.97943 25521 ft 441 kts
2026-04-26 19:01 52.69610 9.98599 24868 ft 439 kts
2026-04-26 19:01 52.72633 9.99269 24216 ft 437 kts
2026-04-26 19:01 52.75655 10.00106 23552 ft 443 kts
2026-04-26 19:02 52.78677 10.01103 22897 ft 442 kts
2026-04-26 19:02 52.81675 10.02183 22255 ft 439 kts
2026-04-26 19:02 52.84652 10.03282 21610 ft 436 kts
2026-04-26 19:02 52.86605 10.03998 21168 ft 433 kts
2026-04-26 19:03 52.90520 10.05387 20305 ft 427 kts
2026-04-26 19:03 52.93414 10.06380 19654 ft 422 kts
2026-04-26 19:03 52.96280 10.07347 19006 ft 418 kts
2026-04-26 19:03 52.99125 10.08298 18446 ft 416 kts
2026-04-26 19:04 53.01954 10.09243 17886 ft 414 kts
2026-04-26 19:04 53.04763 10.10186 17340 ft 410 kts
2026-04-26 19:04 53.07543 10.11127 16788 ft 406 kts
2026-04-26 19:04 53.10262 10.12053 16245 ft 402 kts
2026-04-26 19:05 53.15705 10.13919 15135 ft 395 kts
2026-04-26 19:05 53.18386 10.14836 14583 ft 392 kts
2026-04-26 19:05 53.21041 10.15746 14031 ft 388 kts
2026-04-26 19:06 53.23675 10.16651 13481 ft 384 kts
2026-04-26 19:06 53.26280 10.17555 12900 ft 381 kts
2026-04-26 19:06 53.28874 10.18455 12311 ft 376 kts
2026-04-26 19:06 53.31423 10.19330 11724 ft 373 kts
2026-04-26 19:07 53.33958 10.20204 11145 ft 371 kts
2026-04-26 19:07 53.36487 10.21077 10565 ft 370 kts
2026-04-26 19:07 53.38980 10.21942 9980 ft 362 kts
2026-04-26 19:07 53.41423 10.22796 9403 ft 355 kts
2026-04-26 19:08 53.43784 10.23619 8835 ft 348 kts
2026-04-26 19:08 53.46136 10.24437 8262 ft 343 kts
2026-04-26 19:08 53.48459 10.25245 7682 ft 340 kts
2026-04-26 19:08 53.50753 10.26044 7109 ft 335 kts 10°
2026-04-26 19:09 53.53005 10.26826 6554 ft 323 kts
2026-04-26 19:09 53.55123 10.27564 6340 ft 302 kts
2026-04-26 19:09 53.57162 10.28273 6143 ft 296 kts
2026-04-26 19:09 53.59178 10.28973 5921 ft 295 kts
2026-04-26 19:10 53.61189 10.29675 5362 ft 294 kts
2026-04-26 19:10 53.63186 10.30377 4781 ft 291 kts
2026-04-26 19:10 53.65147 10.31065 4206 ft 286 kts 10°
2026-04-26 19:10 53.67084 10.31743 3628 ft 282 kts 10°
2026-04-26 19:11 53.68965 10.32407 3198 ft 269 kts 10°
2026-04-26 19:11 53.70724 10.33028 2855 ft 254 kts 10°
2026-04-26 19:11 53.72437 10.33367 2539 ft 235 kts 351°
2026-04-26 19:11 53.73839 10.32355 2513 ft 222 kts 319°
2026-04-26 19:12 53.74653 10.30194 2514 ft 221 kts 284°
2026-04-26 19:12 53.74719 10.27615 2515 ft 219 kts 266°
2026-04-26 19:12 53.74591 10.25134 2502 ft 205 kts 264°
2026-04-26 19:12 53.74423 10.22820 2504 ft 196 kts 256°
2026-04-26 19:13 53.73831 10.20792 2549 ft 194 kts 234°
2026-04-26 19:13 53.72975 10.19042 2514 ft 193 kts 231°
2026-04-26 19:13 53.72121 10.17302 2502 ft 192 kts 231°
2026-04-26 19:13 53.71269 10.15567 2358 ft 192 kts 231°
2026-04-26 19:14 53.70419 10.13838 2132 ft 191 kts 231°
2026-04-26 19:14 53.69576 10.12114 1887 ft 187 kts 232°
2026-04-26 19:14 53.68767 10.10469 1646 ft 176 kts 231°
2026-04-26 19:14 53.68259 10.09436 1496 ft 168 kts 232°
2026-04-26 19:15 53.67347 10.07580 1217 ft 142 kts 231°
2026-04-26 19:15 53.66741 10.06347 1037 ft 132 kts 231°
2026-04-26 19:15 53.66160 10.05170 870 ft 129 kts 231°
2026-04-26 19:15 53.65595 10.04004 674 ft 127 kts 233°
2026-04-26 19:16 53.65030 10.02851 493 ft 127 kts 230°
2026-04-26 19:16 53.64465 10.01704 327 ft 127 kts 230°
2026-04-26 19:16 53.63901 10.00564 172 ft 126 kts 231°
2026-04-26 19:16 53.63346 9.99447 50 ft 122 kts 230°
2026-04-26 19:17 53.62886 9.98520 44 ft 80 kts 230°
2026-04-26 19:17 53.62621 9.97982 42 ft 49 kts 230°
2026-04-26 19:17 53.62492 9.97789 41 ft 16 kts 181°
2026-04-26 19:17 53.62429 9.97890 45 ft 11 kts 100°
2026-04-26 19:18 53.62442 9.98009 47 ft 11 kts 71°
2026-04-26 19:18 53.62458 9.98088 47 ft 2 kts 70°
2026-04-26 19:18 53.62462 9.98104 47 ft 0 kts 70°
2026-04-26 19:18 53.62467 9.98115 47 ft 4 kts 44°
2026-04-26 19:19 53.62500 9.98173 47 ft 9 kts 48°
2026-04-26 19:19 53.62548 9.98264 47 ft 11 kts 53°
2026-04-26 19:19 53.62598 9.98366 47 ft 12 kts 49°
2026-04-26 19:19 53.62639 9.98484 47 ft 11 kts 99°
2026-04-26 19:20 53.62578 9.98562 47 ft 12 kts 152°
2026-04-26 19:20 53.62525 9.98627 47 ft 15 kts 122°
2026-04-26 19:20 53.62537 9.98862 47 ft 16 kts 78°
2026-04-26 19:20 53.62557 9.99036 47 ft 15 kts 79°
2026-04-26 19:21 53.62577 9.99217 47 ft 17 kts 79°
2026-04-26 19:21 53.62600 9.99403 47 ft 17 kts 78°
2026-04-26 19:21 53.62622 9.99602 47 ft 18 kts 79°
2026-04-26 19:21 53.62658 9.99808 46 ft 19 kts 52°
2026-04-26 19:22 53.62773 9.99929 46 ft 19 kts 30°
2026-04-26 19:22 53.62824 10.00072 47 ft 15 kts 119°
2026-04-26 19:22 53.62736 10.00166 48 ft 13 kts 152°
2026-04-26 19:22 53.62707 10.00209 48 ft 4 kts 97°
2026-04-26 19:23 53.62725 10.00263 48 ft 7 kts 57°
2026-04-26 19:23 53.62738 10.00306 48 ft 1 kts 63°
2026-04-26 19:23 53.62741 10.00314 48 ft 0 kts 62°